TimeMDT,TemperatureF,Dew PointF,Humidity,Sea Level PressureIn,VisibilityMPH,Wind Direction,Wind SpeedMPH,Gust SpeedMPH,PrecipitationIn,Events,Conditions,WindDirDegrees,DateUTC
12:53 AM,39.9,23.0,51,29.94,10.0,West,5.8,-,N/A,,Clear,280,2012-10-09 06:53:00
3:53 AM,39.9,21.9,49,29.93,10.0,WNW,4.6,-,N/A,,Clear,290,2012-10-09 09:53:00
4:53 AM,39.0,21.9,50,29.94,10.0,West,4.6,-,N/A,,Clear,280,2012-10-09 10:53:00
5:53 AM,39.0,21.9,50,29.94,10.0,WNW,3.5,-,N/A,,Clear,300,2012-10-09 11:53:00
6:53 AM,36.0,23.0,59,29.99,10.0,Calm,Calm,-,N/A,,Clear,0,2012-10-09 12:53:00
7:53 AM,37.9,23.0,55,30.01,10.0,West,3.5,-,N/A,,Clear,280,2012-10-09 13:53:00
8:53 AM,46.9,26.1,44,30.01,10.0,Calm,Calm,-,N/A,,Clear,0,2012-10-09 14:53:00
9:53 AM,53.1,21.0,29,30.00,10.0,Calm,Calm,-,N/A,,Clear,0,2012-10-09 15:53:00
10:53 AM,55.0,19.9,25,30.01,10.0,Variable,3.5,-,N/A,,Clear,0,2012-10-09 16:53:00
11:53 AM,59.0,21.0,23,29.99,10.0,Calm,Calm,-,N/A,,Clear,0,2012-10-09 17:53:00
12:53 PM,63.0,21.0,20,29.96,10.0,Calm,Calm,-,N/A,,Clear,0,2012-10-09 18:53:00
1:53 PM,66.0,21.9,19,29.92,10.0,Calm,Calm,-,N/A,,Clear,0,2012-10-09 19:53:00
2:53 PM,68.0,21.9,17,29.91,10.0,Calm,Calm,-,N/A,,Clear,0,2012-10-09 20:53:00
3:53 PM,70.0,23.0,17,29.89,10.0,Calm,Calm,-,N/A,,Clear,0,2012-10-09 21:53:00
4:53 PM,71.1,23.0,16,29.88,10.0,Calm,Calm,-,N/A,,Clear,0,2012-10-09 22:53:00
5:53 PM,70.0,23.0,17,29.88,10.0,Calm,Calm,-,N/A,,Clear,0,2012-10-09 23:53:00
6:53 PM,62.1,30.0,30,29.92,10.0,WSW,5.8,-,N/A,,Clear,250,2012-10-10 00:53:00
7:53 PM,53.1,30.9,43,29.96,10.0,West,4.6,-,N/A,,Clear,270,2012-10-10 01:53:00
8:53 PM,53.1,27.0,37,29.96,10.0,Calm,Calm,-,N/A,,Clear,0,2012-10-10 02:53:00
9:53 PM,50.0,28.0,43,29.96,10.0,West,5.8,-,N/A,,Clear,280,2012-10-10 03:53:00
10:53 PM,48.0,26.1,42,29.96,10.0,West,4.6,-,N/A,,Clear,280,2012-10-10 04:53:00
11:53 PM,46.9,25.0,42,29.97,10.0,WSW,3.5,-,N/A,,Clear,240,2012-10-10 05:53:00